[[{"header":{"parameterUnit":"m.s-1","parameterCategory":1,"la1":30.2991,"la2":30.254,"lo1":-89.0895,"lo2":-89.0444,"dx":0.0017,"dy":0.0017,"nx":28,"ny":28,"refTime":"2022-11-16T03:00:00:Z","depth":0,"parameterNumber":2,"parameterNumberName":"U-component_of_WINDS"},"data":[0,0,0,0,0,0,0,0,0,0,0,0,0,0,0,0,0,0,0,0,0,0,0,0,0,0,0,0,0,0,0,0,0,0,0,0,0,0,0,0,0,0,0,0,0,0,0,0,0,0,0,0,0,0,0,0,0,0,0.6672,0.6673,0,0.6686,0.6686,0.6686,0.6707,0.6707,0.6708,0.6708,0.6721,0.6721,0.6721,0,0,0,0,0,0,0,0,0,0,0,0,0,0.6665,0.6665,0.6672,0.6673,0.6673,0.6686,0.6686,0.6686,0.6707,0.6707,0.6708,0.6708,0.6721,0.6721,0.6721,0,0,0,0,0,0,0,0,0,0,0,0,0,0.6673,0.6665,0.6672,0.6685,0.6686,0.6686,0.6686,0.6686,0.6707,0.6707,0.6708,0.6708,0.6721,0.6721,0.6721,0.6709,0,0,0.6721,0.6721,0,0,0,0,0,0,0,0,0.6672,0.6673,0.6683,0.6684,0.6685,0.6695,0.6688,0.6694,0.6707,0.6699,0.6708,0.6709,0.6712,0.6712,0.6714,0.671,0.671,0.6721,0.6721,0.6721,0.6721,0,0,0,0,0,0,0,0.6672,0.6672,0.6678,0.6683,0.6684,0.669,0.6691,0.6689,0.6702,0.67,0.6701,0.6702,0.6713,0.6714,0.6714,0.6711,0.6721,0.6721,0.6721,0.6721,0.67,0.6699,0,0,0,0,0,0,0.6669,0.6672,0.6677,0.6678,0.668,0.6689,0.6691,0.6691,0.6702,0.6704,0.6702,0.6703,0.6713,0.6714,0.6715,0.6703,0.6721,0.6721,0.6721,0.67,0.6699,0.6699,0,0,0,0,0,0,0.6669,0.667,0.6677,0.6675,0.6677,0.6689,0.6689,0.6691,0.6693,0.6704,0.6706,0.6701,0.6714,0.6715,0.6711,0.6703,0.6721,0.6721,0.6701,0.67,0.6699,0.6678,0,0,0,0,0,0,0.6669,0.6669,0.6665,0.6675,0.6677,0.6672,0.6689,0.6691,0.6693,0.6695,0.6703,0.6705,0.6714,0.6711,0.6711,0.6704,0.6721,0.6701,0.67,0.6699,0.6679,0.6676,0.6674,0,0,0,0,0,0.6668,0.6658,0.6665,0.6665,0.6671,0.6672,0.6673,0.6684,0.6692,0.6688,0.6695,0.6705,0.6704,0.671,0.671,0.6703,0.6702,0.6701,0.67,0.6681,0.6677,0.6674,0,0,0,0,0,0,0.6646,0.6659,0.6667,0.6659,0.6664,0.6675,0.667,0.6679,0.6682,0.6684,0.6697,0.6699,0.6693,0.6698,0.6704,0.6693,0.6705,0.6704,0.669,0.6687,0.6685,0.6683,0.6721,0,0,0,0,0,0.664,0.6639,0.6651,0.6643,0.6646,0.6658,0.6658,0.6666,0.6672,0.6674,0.6681,0.6686,0.6687,0.6688,0.6689,0.6681,0.6683,0.6676,0.6673,0.6671,0.667,0.6666,0.6663,0.6695,0.6695,0.6695,0,0,0.6627,0.6635,0.6634,0.6639,0.6644,0.6643,0.6659,0.6657,0.6657,0.6674,0.6671,0.6676,0.6683,0.6677,0.6675,0.6681,0.6662,0.667,0.6668,0.6667,0.6665,0.6662,0.6659,0.6694,0.6694,0.6694,0,0,0.6605,0.661,0.6605,0.661,0.6617,0.6626,0.6624,0.6634,0.6639,0.6636,0.6649,0.6649,0.6651,0.6655,0.6658,0.6639,0.6648,0.6639,0.6625,0.6622,0.6619,0.6617,0.6611,0.6608,0.6638,0.6638,0.6638,0,0.6588,0.6587,0.66,0.6598,0.6601,0.6617,0.6612,0.6616,0.6623,0.6625,0.6632,0.6635,0.664,0.6636,0.6632,0.6633,0.6633,0.6637,0.6618,0.6616,0.6615,0.6609,0.6606,0.6637,0.6637,0.6637,0.6637,0,0.6567,0.6566,0.6561,0.6569,0.6571,0.6567,0.658,0.658,0.6589,0.6597,0.6595,0.6602,0.6606,0.6606,0.6614,0.6603,0.6607,0.6616,0.6628,0.661,0.6605,0.6603,0.6635,0.6635,0.6636,0.6636,0,0,0.6528,0.6545,0.6542,0.6547,0.6557,0.6557,0.6555,0.6559,0.656,0.6565,0.6563,0.6565,0.6574,0.6577,0.6586,0.6583,0.6569,0.6593,0.6593,0.6588,0.6558,0.6551,0.6548,0.6576,0.6575,0.6575,0.6558,0,0.6507,0.6504,0.6516,0.651,0.651,0.6527,0.6525,0.6531,0.6539,0.654,0.6549,0.655,0.6562,0.6564,0.6562,0.6571,0.6563,0.6572,0.6574,0.6574,0.6571,0.6545,0.6537,0.652,0.6556,0.6555,0.6555,0,0.6481,0.6486,0.648,0.6492,0.6493,0.649,0.6496,0.6498,0.6506,0.6512,0.6516,0.6527,0.6526,0.6538,0.6538,0.6544,0.6546,0.6551,0.655,0.655,0.6563,0.6544,0.6515,0.6512,0.6552,0.6552,0.6552,0,0.6454,0.6459,0.6456,0.6459,0.6473,0.6471,0.6477,0.6486,0.6489,0.6494,0.6496,0.6501,0.6504,0.6508,0.652,0.6527,0.6518,0.6531,0.6523,0.6523,0.6519,0.6519,0.649,0.6521,0.6522,0.6522,0.6522,0,0.6428,0.6424,0.6444,0.6442,0.6437,0.6453,0.6448,0.6456,0.6464,0.6464,0.6479,0.6479,0.6496,0.6498,0.6508,0.6506,0.6508,0.6513,0.6515,0.6511,0.651,0.6512,0.6513,0.6521,0.6521,0.6521,0.6521,0,0.6396,0.6409,0.6407,0.6421,0.6425,0.6421,0.6434,0.6433,0.6443,0.6443,0.6444,0.6459,0.6462,0.6475,0.6482,0.6489,0.6484,0.6489,0.6481,0.6482,0.6474,0.6474,0.6444,0.6441,0.6475,0.6474,0.6474,0,0.6378,0.6375,0.639,0.6391,0.6397,0.6399,0.6402,0.6418,0.642,0.643,0.6428,0.6433,0.6438,0.6443,0.6454,0.646,0.6465,0.6454,0.6466,0.6462,0.6465,0.6465,0.6465,0.6451,0.6451,0.645,0.645,0,0.6346,0.6353,0.6357,0.6363,0.6366,0.6372,0.6379,0.6379,0.6397,0.6399,0.6403,0.6407,0.6414,0.6419,0.6427,0.6433,0.6445,0.6447,0.6445,0.644,0.6436,0.6438,0.6473,0.6447,0.6447,0.6447,0.6448,0.6448,0.632,0.6319,0.6329,0.6333,0.634,0.6347,0.6347,0.6357,0.6361,0.6368,0.6378,0.6381,0.6391,0.6403,0.6409,0.6412,0.6418,0.6415,0.6415,0.6414,0.6412,0.6436,0.6413,0.6413,0.6413,0.6413,0.6413,0,0.6289,0.6297,0.63,0.631,0.6313,0.6325,0.6333,0.6335,0.6338,0.6347,0.6351,0.6357,0.6362,0.6375,0.6381,0.6382,0.6387,0.6383,0.6383,0.6384,0.6406,0.6407,0.6378,0.6378,0.6378,0.6378,0.6378,0.6378,0.6272,0.6271,0.628,0.6282,0.6291,0.6294,0.6298,0.6304,0.6311,0.6317,0.6321,0.633,0.6341,0.6349,0.6354,0.6358,0.636,0.6354,0.6359,0.6379,0.6382,0.6385,0.6386,0.6354,0.6354,0.6337,0.6337,0.6337]},{"header":{"parameterUnit":"m.s-1","parameterCategory":1,"la1":30.2991,"la2":30.254,"lo1":-89.0895,"lo2":-89.0444,"dx":0.0017,"dy":0.0017,"nx":28,"ny":28,"refTime":"2022-11-16T03:00:00:Z","depth":0,"parameterNumber":3,"parameterNumberName":"V-component_of_WINDS"},"data":[0,0,0,0,0,0,0,0,0,0,0,0,0,0,0,0,0,0,0,0,0,0,0,0,0,0,0,0,0,0,0,0,0,0,0,0,0,0,0,0,0,0,0,0,0,0,0,0,0,0,0,0,0,0,0,0,0,0,-7.6021,-7.6022,0,-7.6148,-7.615,-7.6151,-7.6086,-7.6083,-7.608,-7.6076,-7.6201,-7.6207,-7.6213,0,0,0,0,0,0,0,0,0,0,0,0,0,-7.5714,-7.572,-7.602,-7.6022,-7.6024,-7.6148,-7.615,-7.6152,-7.6087,-7.6083,-7.6079,-7.6075,-7.6199,-7.6206,-7.6214,0,0,0,0,0,0,0,0,0,0,0,0,0,-7.5845,-7.5722,-7.602,-7.6007,-7.6007,-7.6148,-7.615,-7.6152,-7.6088,-7.6083,-7.6078,-7.6073,-7.6196,-7.6205,-7.6215,-7.6375,0,0,-7.6244,-7.6249,0,0,0,0,0,0,0,0,-7.5837,-7.5856,-7.6007,-7.6008,-7.6008,-7.6096,-7.6087,-7.6226,-7.6089,-7.6057,-7.6076,-7.6071,-7.617,-7.6181,-7.6216,-7.6381,-7.6386,-7.6245,-7.6251,-7.6255,-7.6258,0,0,0,0,0,0,0,-7.5828,-7.585,-7.6071,-7.6009,-7.601,-7.5992,-7.6005,-7.6113,-7.6139,-7.6059,-7.6055,-7.6071,-7.6169,-7.6207,-7.6218,-7.6388,-7.6245,-7.6254,-7.6259,-7.6263,-7.6689,-7.6694,0,0,0,0,0,0,-7.5821,-7.5843,-7.6067,-7.6075,-7.5909,-7.6001,-7.6016,-7.6073,-7.6138,-7.6143,-7.6075,-7.6068,-7.6193,-7.6207,-7.6222,-7.6413,-7.6255,-7.6264,-7.627,-7.6683,-7.669,-7.6696,0,0,0,0,0,0,-7.5814,-7.5841,-7.6062,-7.5958,-7.5984,-7.6012,-7.6077,-7.6078,-7.6116,-7.6151,-7.6154,-7.611,-7.6189,-7.6209,-7.6338,-7.6417,-7.6269,-7.6277,-7.6677,-7.6685,-7.6693,-7.6797,0,0,0,0,0,0,-7.5806,-7.584,-7.5902,-7.596,-7.599,-7.6177,-7.6081,-7.6084,-7.6134,-7.6125,-7.6184,-7.6189,-7.6187,-7.6324,-7.6347,-7.6427,-7.6285,-7.667,-7.6681,-7.669,-7.6787,-7.6808,-7.6826,0,0,0,0,0,-7.5795,-7.5925,-7.5906,-7.5933,-7.607,-7.6182,-7.6199,-7.6197,-7.614,-7.6202,-7.6224,-7.6187,-7.6404,-7.6337,-7.6363,-7.6448,-7.6665,-7.6677,-7.6689,-7.6778,-7.6804,-7.6826,0,0,0,0,0,0,-7.5874,-7.5933,-7.5912,-7.6065,-7.6119,-7.6171,-7.6249,-7.6224,-7.6294,-7.6282,-7.6274,-7.6288,-7.6422,-7.6447,-7.6372,-7.6605,-7.6525,-7.6544,-7.6584,-7.6609,-7.6628,-7.6619,-7.6293,0,0,0,0,0,-7.591,-7.5998,-7.6044,-7.6174,-7.6203,-7.6222,-7.627,-7.6264,-7.6319,-7.6341,-7.6372,-7.6425,-7.6505,-7.6558,-7.6634,-7.679,-7.6801,-7.6861,-7.688,-7.6896,-7.6912,-7.6995,-7.7022,-7.6737,-7.6737,-7.6736,0,0,-7.5983,-7.6026,-7.6082,-7.6191,-7.6232,-7.6322,-7.6241,-7.634,-7.6406,-7.6355,-7.6479,-7.6504,-7.6562,-7.6706,-7.677,-7.6731,-7.6993,-7.6912,-7.6925,-7.6932,-7.7011,-7.7038,-7.7062,-7.6745,-7.6744,-7.6742,0,0,-7.6164,-7.6206,-7.6319,-7.6363,-7.6427,-7.6439,-7.6466,-7.6522,-7.6537,-7.6662,-7.6626,-7.6703,-7.6841,-7.6884,-7.6924,-7.7121,-7.7088,-7.7145,-7.7248,-7.733,-7.7352,-7.7372,-7.7442,-7.7467,-7.7161,-7.7161,-7.7162,0,-7.6247,-7.6383,-7.638,-7.6482,-7.653,-7.649,-7.6604,-7.6645,-7.673,-7.6763,-7.6719,-7.6892,-7.6929,-7.7081,-7.7129,-7.7163,-7.7192,-7.7139,-7.735,-7.737,-7.7388,-7.7454,-7.748,-7.7168,-7.7167,-7.7166,-7.7166,0,-7.6481,-7.6576,-7.6659,-7.6745,-7.6803,-7.691,-7.6921,-7.6979,-7.6967,-7.6982,-7.7109,-7.7152,-7.7235,-7.7271,-7.7259,-7.7421,-7.7395,-7.7351,-7.727,-7.7422,-7.7484,-7.7509,-7.7177,-7.7175,-7.7173,-7.7171,0,0,-7.6715,-7.6798,-7.6829,-7.6867,-7.6935,-7.7007,-7.7111,-7.7195,-7.7245,-7.7304,-7.7391,-7.7509,-7.7468,-7.7514,-7.7506,-7.7578,-7.773,-7.7524,-7.7526,-7.7561,-7.791,-7.7943,-7.7973,-7.7709,-7.7714,-7.7718,-7.7905,0,-7.69,-7.7086,-7.7086,-7.7256,-7.7343,-7.7306,-7.7396,-7.7447,-7.7464,-7.7538,-7.7555,-7.764,-7.758,-7.7607,-7.7676,-7.7697,-7.78,-7.7684,-7.7787,-7.7791,-7.7774,-7.8005,-7.8041,-7.8216,-7.7929,-7.7933,-7.7936,0,-7.7141,-7.7211,-7.7391,-7.7446,-7.7482,-7.7564,-7.7641,-7.7713,-7.7768,-7.7775,-7.7827,-7.7808,-7.7912,-7.7829,-7.7971,-7.7891,-7.7933,-7.795,-7.7957,-7.7966,-7.7873,-7.8021,-7.8272,-7.8298,-7.7975,-7.7972,-7.7969,0,-7.7293,-7.7432,-7.7558,-7.7591,-7.7659,-7.7717,-7.7748,-7.7799,-7.7849,-7.7915,-7.7947,-7.8023,-7.8065,-7.8123,-7.8125,-7.8064,-7.8268,-7.8185,-7.8275,-7.8275,-7.832,-7.8317,-7.8581,-7.8347,-7.8347,-7.8346,-7.8346,0,-7.75,-7.7611,-7.7627,-7.7704,-7.7827,-7.7825,-7.7945,-7.797,-7.8016,-7.8095,-7.8067,-7.8141,-7.814,-7.8215,-7.8216,-7.8333,-7.8352,-7.8359,-7.8358,-7.8362,-7.8361,-7.8389,-7.8377,-7.8353,-7.8352,-7.835,-7.8349,0,-7.7691,-7.7707,-7.7841,-7.7894,-7.791,-7.7998,-7.8043,-7.8115,-7.8129,-7.823,-7.8254,-7.8276,-7.8363,-7.8371,-7.8471,-7.8472,-7.8613,-7.8599,-7.8595,-7.8593,-7.8683,-7.8674,-7.8974,-7.9013,-7.8754,-7.8757,-7.8759,0,-7.7822,-7.7907,-7.7971,-7.8023,-7.8057,-7.8142,-7.8194,-7.8194,-7.8248,-7.8317,-7.8381,-7.8466,-7.8534,-7.8674,-7.8697,-7.8774,-7.8761,-7.8861,-7.8772,-7.8773,-7.8762,-7.8757,-7.8765,-7.8878,-7.8881,-7.8883,-7.8885,0,-7.8053,-7.8056,-7.8133,-7.8213,-7.8276,-7.8338,-7.8396,-7.844,-7.8447,-7.8509,-7.8599,-7.8652,-7.8755,-7.8839,-7.8914,-7.8942,-7.8915,-7.8913,-7.8937,-7.8942,-7.8936,-7.894,-7.8642,-7.8906,-7.8904,-7.8902,-7.8901,-7.89,-7.8218,-7.8292,-7.8348,-7.8434,-7.8478,-7.8533,-7.8604,-7.8628,-7.8704,-7.8789,-7.8784,-7.8883,-7.8934,-7.9032,-7.9067,-7.9142,-7.9108,-7.9144,-7.9154,-7.9162,-7.9172,-7.8925,-7.9156,-7.9155,-7.9155,-7.9154,-7.9154,0,-7.8447,-7.8481,-7.8561,-7.8644,-7.8712,-7.8682,-7.8744,-7.8802,-7.889,-7.8942,-7.901,-7.9112,-7.9193,-7.9224,-7.9302,-7.9357,-7.9346,-7.9377,-7.9373,-7.938,-7.9198,-7.9168,-7.9385,-7.9385,-7.9385,-7.9385,-7.9385,-7.9385,-7.8574,-7.8697,-7.8707,-7.8851,-7.8884,-7.8983,-7.9021,-7.9071,-7.9112,-7.9229,-7.9297,-7.9317,-7.9359,-7.944,-7.9513,-7.9519,-7.9549,-7.9586,-7.9587,-7.9416,-7.9393,-7.9371,-7.9343,-7.9593,-7.9593,-7.9763,-7.9764,-7.9765]}]]